Miscellaneous Local Product
Issued by NWS Hastings, NE

Home | Current Version | Previous Version | Text Only | Print | Product List | Glossary On
Versions: 1 2 3 4 5 6 7 8 9 10 11 12 13 14 15 16 17 18 19 20 21 22 23 24 25 26 27 28 29 30 31 32 33 34 35 36 37 38 39 40 41 42 43 44 45 46 47 48 49 50
407
AXUS43 KGID 312302
MISGRI

GID CWA HOURLY WEATHER ROUNDUP
NATIONAL WEATHER SERVICE HASTINGS NE
600 PM CDT WED AUG 31 2016

NOTE: "FAIR" INDICATES FEW OR NO CLOUDS BELOW 12,000 FEET WITH NO
SIGNIFICANT WEATHER AND/OR OBSTRUCTIONS TO VISIBILITY.

...SOUTH CENTRAL NEBRASKA...

CITY           SKY/WX    TMP DP  RH WIND       PRES   REMARKS
GRAND ISLAND   SUNNY     81  53  37 E9        30.18S
HASTINGS       SUNNY     79  55  43 E10       30.17F
KEARNEY        SUNNY     81  63  54 E9        30.16S
ORD            SUNNY     81  53  37 E8        30.17S
YORK           SUNNY     77  59  53 NE10      30.17S
AURORA         SUNNY     78  58  50 NE8       30.17F
LEXINGTON      MOSUNNY   80  62  54 SE7       30.18S
HOLDREGE       SUNNY     78  61  55 E8        30.17S
HEBRON         SUNNY     78  59  51 E8        30.14F

...NEBRASKA PANHANDLE...

CITY           SKY/WX    TMP DP  RH WIND       PRES   REMARKS
CHADRON        MOSUNNY   83  52  34 SE16      30.14F
ALLIANCE       MOSUNNY   80  56  43 SE16G23   30.20S
SCOTTSBLUFF    MOSUNNY   81  57  43 E15       30.18F
SIDNEY         MOSUNNY   77  58  51 SE13      30.22F

...WESTERN AND NORTH CENTRAL NEBRASKA...

CITY           SKY/WX    TMP DP  RH WIND       PRES   REMARKS
VALENTINE      MOSUNNY   83  55  38 SE12      30.18F
AINSWORTH      SUNNY     81  60  48 E10       30.19F
ONEILL         PTSUNNY   82  52  35 SE8       30.19S
BROKEN BOW     MOSUNNY   80  60  50 E10       30.19S
IMPERIAL       MOSUNNY   75  64  68 SE12      30.20F
NORTH PLATTE   SUNNY     81  59  47 SE15      30.19S
MCCOOK         MOSUNNY   75  64  68 SE10      30.17F

...EASTERN NEBRASKA...

CITY           SKY/WX    TMP DP  RH WIND       PRES   REMARKS
NORFOLK        SUNNY     79  58  48 E9        30.17S
SO SIOUX CITY  SUNNY     81  59  47 NE6       30.16S
TEKAMAH        SUNNY     79  60  52 NE7       30.15S
COLUMBUS       SUNNY     77  57  50 NE9       30.17S
ALBION         SUNNY     78  56  46 E9        30.18S
OMAHA EPPLEY   MOSUNNY   80  59  48 N10       30.14S
OFFUTT AFB     SUNNY     80  62  54 N8        30.13S
MILLARD        SUNNY    N/A N/A N/A NE5       30.14F
LINCOLN        SUNNY     80  59  48 NE10      30.15S
NEBRASKA CITY  MOSUNNY   76  58  52 NE8       30.13F
BEATRICE       CLOUDY    78  60  54 NE9       30.13F
FALLS CITY     PTSUNNY   78  61  55 NE5       30.10F

...NORTHERN KANSAS...

CITY           SKY/WX    TMP DP  RH WIND       PRES   REMARKS
GOODLAND       CLOUDY    69  64  84 SE12      30.21S
HILL CITY      CLOUDY    74  67  78 NE13G21   30.16S
NORTON         MOCLDY    75  61  60 NE12      30.17S
SMITH CENTER   MOSUNNY   79  64  61 CALM      30.15S
BELOIT         MOSUNNY   72  64  78 NE6       30.12F
HAYS           MOSUNNY   75  63  64 E14       30.14S
RUSSELL        MOSUNNY   75  68  78 E14       30.12F
CONCORDIA      MOSUNNY   79  66  64 NE10      30.13F
SALINA         LGT RAIN  74  69  85 N8        30.11F
TOPEKA         MOSUNNY   80  68  66 NE8       30.08S



USA.gov is the U.S. government's official web portal to all federal, state and local government web resources and services.